Date String (YYYY-MM-DD hh:mm:ss) UTC,Instrument flags,Ambient pressure (hPa),Sample flow (lpm),Bypass flow (lpm),Sample temperature (°C),Ambient temperature (°C),ASC tube jacket temperature (°C),LED temperature (°C),Box temperature (°C),Sample RH (%),Span deviation,Mass concentration (μg/m³),Mass concentration (μg/m³),Mass concentration (μg/m³)
DateTimeUTC,F1_M11,P_M11,Q1_M11,Q2_M11,T1_M11,T2_M11,T3_M11,T4_M11,T5_M11,U1_M11,ZSPAN_M11,X0_M11,X2_M11,X1_M11
2021-12-25 06:00:00,,0811.5,5.00,0.00,22.2,22.3,00.0,31.1,24.1,14.6,0000.0,0000.86,0000.56,0000.49
2021-12-25 06:01:00,,0811.5,5.00,0.00,22.2,22.2,00.0,31.1,24.0,14.5,0000.0,0000.74,0000.56,0000.49
2021-12-25 06:02:00,,0811.6,5.01,0.00,22.2,22.1,00.0,31.1,24.0,14.5,0000.0,0000.73,0000.56,0000.49
2021-12-25 06:03:00,,0811.6,5.00,0.00,22.3,22.0,00.0,31.1,24.0,14.5,0000.0,0000.75,0000.57,0000.49
2021-12-25 06:04:00,,0811.6,5.00,0.00,22.3,21.9,00.0,31.1,24.0,14.4,0000.0,0000.74,0000.56,0000.49
2021-12-25 06:05:00,,0811.7,5.00,0.00,22.3,21.9,00.0,31.2,24.0,14.5,0000.0,0000.73,0000.56,0000.48
2021-12-25 06:06:00,,0811.7,5.01,0.00,22.3,21.9,00.0,31.2,24.0,14.6,0000.0,0000.73,0000.55,0000.47
2021-12-25 06:07:00,,0811.7,5.00,0.00,22.3,21.8,00.0,31.2,24.1,14.4,0000.0,0000.73,0000.55,0000.47
2021-12-25 06:08:00,,0811.7,5.00,0.00,22.3,21.8,00.0,31.2,24.0,14.5,0000.0,0000.74,0000.55,0000.46
2021-12-25 06:09:00,,0811.6,5.00,0.00,22.3,21.8,00.0,31.2,24.0,14.6,0000.0,0000.73,0000.53,0000.45
2021-12-25 06:10:00,,0811.6,5.00,0.00,22.3,21.7,00.0,31.2,24.0,14.5,0000.0,0000.70,0000.52,0000.44
2021-12-25 06:11:00,,0811.6,4.99,0.00,22.3,21.7,00.0,31.2,24.0,14.6,0000.0,0000.65,0000.49,0000.43
2021-12-25 06:12:00,,0811.6,5.00,0.00,22.3,21.7,00.0,31.2,24.0,14.6,0000.0,0000.60,0000.46,0000.41
2021-12-25 06:13:00,,0811.6,5.01,0.00,22.3,21.7,00.0,31.2,24.0,14.5,0000.0,0000.56,0000.44,0000.40
2021-12-25 06:14:00,,0811.6,4.99,0.00,22.3,21.7,00.0,31.2,24.0,14.6,0000.0,0000.54,0000.42,0000.39
2021-12-25 06:15:00,,0811.7,5.01,0.00,22.3,21.7,00.0,31.2,24.0,14.3,0000.0,0000.53,0000.42,0000.38
2021-12-25 06:16:00,,0811.8,5.00,0.00,22.3,21.7,00.0,31.2,23.9,14.1,0000.0,0000.53,0000.41,0000.38
2021-12-25 06:17:00,,0811.9,5.00,0.00,22.2,21.6,00.0,31.2,23.9,14.2,0000.0,0000.63,0000.43,0000.38
2021-12-25 06:18:00,,0812.1,5.01,0.00,22.2,21.5,00.0,31.2,23.8,14.1,0000.0,0000.64,0000.43,0000.37
2021-12-25 06:19:00,,0812.1,5.00,0.00,22.2,21.5,00.0,31.2,23.8,14.2,0000.0,0000.65,0000.43,0000.36
2021-12-25 06:20:00,,0812.2,5.00,0.00,22.1,21.4,00.0,31.2,23.7,14.4,0000.0,0000.62,0000.41,0000.35
2021-12-25 06:21:00,,0812.3,4.99,0.00,22.1,21.3,00.0,31.2,23.7,15.0,0000.0,0000.65,0000.43,0000.37
2021-12-25 06:22:00,,0812.3,5.00,0.00,22.1,21.2,00.0,31.2,23.6,15.3,0000.0,0000.70,0000.47,0000.40
2021-12-25 06:23:00,,0812.2,5.01,0.00,22.0,21.2,00.0,31.2,23.7,15.2,0000.0,0000.79,0000.53,0000.44
2021-12-25 06:24:00,,0812.2,5.00,0.00,22.0,21.2,00.0,31.1,23.7,15.2,0000.0,0000.87,0000.58,0000.48
2021-12-25 06:25:00,,0812.2,5.00,0.00,22.0,21.2,00.0,31.1,23.7,15.3,0000.0,0000.94,0000.64,0000.54
2021-12-25 06:26:00,,0812.3,5.00,0.00,22.0,21.3,00.0,31.1,23.7,15.3,0000.0,0001.11,0000.72,0000.60
2021-12-25 06:27:00,,0812.3,5.00,0.00,22.0,21.3,00.0,31.1,23.7,15.2,0000.0,0001.25,0000.81,0000.68
2021-12-25 06:28:00,,0812.4,5.00,0.00,22.0,21.3,00.0,31.1,23.7,15.3,0000.0,0001.30,0000.89,0000.76
2021-12-25 06:29:00,,0812.4,5.01,0.00,22.0,21.3,00.0,31.1,23.7,15.1,0000.0,0001.42,0000.99,0000.84
2021-12-25 06:30:00,,0812.3,5.00,0.00,22.0,21.3,00.0,31.1,23.7,15.0,0000.0,0001.50,0001.05,0000.91
2021-12-25 06:31:00,,0812.4,5.00,0.00,22.0,21.3,00.0,31.1,23.7,15.0,0000.0,0001.64,0001.14,0000.99
2021-12-25 06:32:00,,0812.4,4.99,0.00,22.0,21.3,00.0,31.1,23.7,15.1,0000.0,0001.73,0001.21,0001.05
2021-12-25 06:33:00,,0812.6,4.99,0.00,22.0,21.4,00.0,31.1,23.8,14.9,0000.0,0001.74,0001.24,0001.08
2021-12-25 06:34:00,,0812.6,5.00,0.00,22.1,21.4,00.0,31.1,23.8,14.8,0000.0,0001.79,0001.28,0001.11
2021-12-25 06:35:00,,0812.6,5.00,0.00,22.1,21.4,00.0,31.1,23.7,14.6,0000.0,0001.78,0001.27,0001.10
2021-12-25 06:36:00,,0812.5,4.99,0.00,22.0,21.4,00.0,31.1,23.7,14.6,0000.0,0001.78,0001.26,0001.10
2021-12-25 06:37:00,,0812.5,5.01,0.00,22.0,21.4,00.0,31.1,23.8,14.6,0000.0,0001.80,0001.23,0001.06
2021-12-25 06:38:00,,0812.4,5.01,0.00,22.0,21.4,00.0,31.1,23.7,14.5,0000.0,0001.84,0001.17,0000.99
2021-12-25 06:39:00,,0812.4,5.00,0.00,22.0,21.4,00.0,31.1,23.7,14.4,0000.0,0001.71,0001.09,0000.92
2021-12-25 06:40:00,,0812.4,4.99,0.00,22.1,21.4,00.0,31.1,23.8,14.4,0000.0,0001.57,0000.99,0000.86
2021-12-25 06:41:00,,0812.5,5.01,0.00,22.0,21.4,00.0,31.1,23.7,14.3,0000.0,0001.47,0000.92,0000.79
2021-12-25 06:42:00,,0812.5,5.01,0.00,22.0,21.3,00.0,31.1,23.7,14.2,0000.0,0001.32,0000.83,0000.72
2021-12-25 06:43:00,,0812.5,5.00,0.00,22.0,21.3,00.0,31.1,23.7,14.0,0000.0,0001.19,0000.73,0000.63
2021-12-25 06:44:00,,0812.5,5.00,0.00,22.0,21.3,00.0,31.1,23.6,14.1,0000.0,0001.13,0000.67,0000.56
2021-12-25 06:45:00,,0812.5,5.01,0.00,22.0,21.2,00.0,31.0,23.6,14.3,0000.0,0001.00,0000.57,0000.49
2021-12-25 06:46:00,,0812.5,5.00,0.00,21.9,21.2,00.0,31.0,23.5,14.3,0000.0,0000.95,0000.53,0000.45
2021-12-25 06:47:00,,0812.6,5.01,0.00,22.0,21.7,00.0,31.1,23.7,14.1,0000.0,0000.87,0000.47,0000.39
2021-12-25 06:48:00,,0812.7,4.99,0.00,22.1,22.4,00.0,31.1,24.0,14.3,0000.0,0000.67,0000.43,0000.37
2021-12-25 06:49:00,,0812.7,5.00,0.00,22.3,23.0,00.0,31.2,24.3,14.3,0000.0,0000.54,0000.40,0000.36
2021-12-25 06:50:00,,0812.7,4.99,0.00,22.3,22.8,00.0,31.2,24.2,14.2,0000.0,0000.52,0000.39,0000.34
2021-12-25 06:51:00,,0812.8,5.00,0.00,22.3,22.5,00.0,31.2,24.1,14.4,0000.0,0000.51,0000.38,0000.33
2021-12-25 06:52:00,,0812.7,5.00,0.00,22.3,22.3,00.0,31.2,24.1,14.5,0000.0,0000.50,0000.37,0000.33
2021-12-25 06:53:00,,0812.8,5.00,0.00,22.3,22.2,00.0,31.2,24.0,14.5,0000.0,0000.51,0000.38,0000.33
2021-12-25 06:54:00,,0812.8,4.99,0.00,22.3,22.0,00.0,31.2,24.0,14.6,0000.0,0000.51,0000.38,0000.34
2021-12-25 06:55:00,,0812.7,5.01,0.00,22.2,21.9,00.0,31.2,24.0,14.7,0000.0,0000.51,0000.39,0000.35
2021-12-25 06:56:00,,0812.8,5.01,0.00,22.2,21.8,00.0,31.2,23.9,14.9,0000.0,0000.53,0000.40,0000.36
2021-12-25 06:57:00,,0812.8,4.99,0.00,22.2,21.7,00.0,31.2,23.9,15.0,0000.0,0000.54,0000.41,0000.36
2021-12-25 06:58:00,,0812.8,5.00,0.00,22.2,21.6,00.0,31.2,23.8,15.3,0000.0,0000.54,0000.41,0000.37
2021-12-25 06:59:00,,0812.8,5.00,0.00,22.1,21.6,00.0,31.2,23.8,15.3,0000.0,0000.55,0000.41,0000.37
